Hourly Weather Roundup
Issued by NWS Central Illinois

Home | Current Version | Previous Version | Text Only | Print | Product List | Glossary On
Versions: 1 2 3 4 5 6 7 8 9 10 11 12 13 14 15 16 17 18 19 20 21 22 23 24 25 26 27 28 29 30 31 32 33 34 35 36 37 38 39 40 41 42 43 44 45 46 47 48 49 50
000
NZUS43 KILX 301510
HWRILX

AREA WEATHER ROUNDUP
NATIONAL WEATHER SERVICE, LINCOLN IL
1000 AM CDT WED JUL 30 2014


CITY           SKY/WX    TMP DP  RH WIND       PRES   REMARKS
BLOOMINGTON    SUNNY     71  59  66 W9        30.10R
CHAMPAIGN      SUNNY     71  63  75 W8        30.08F
DECATUR        SUNNY     74  60  61 W7        30.09S
FLORA          SUNNY     74  57  55 W6        30.10F
GALESBURG      SUNNY     73  64  71 NW6       30.09S
JACKSONVILLE   SUNNY     74  63  68 W6        30.11S
LACON          SUNNY     72  58  61 CALM      30.06S
LAWRENCEVILLE  SUNNY     73  60  63 W8        30.10S
LITCHFIELD     SUNNY     72  60  64 W6        30.11F
$$


CITY           SKY/WX    TMP DP  RH WIND       PRES   REMARKS
LINCOLN        SUNNY     75  60  58 NW5       30.06F
MACOMB         SUNNY     72  62  72 NW8       30.11S
MATTOON        SUNNY     74  61  63 NW9       30.08S
MT CARMEL AP   PTSUNNY   73  61  64 W6        30.10S
OLNEY-NOBLE AP SUNNY     72  61  68 CALM      30.11S
PARIS          SUNNY     73  64  75 W5        30.09S
PEORIA         SUNNY     75  61  61 VRB3      30.08S
PONTIAC        SUNNY     73  63  68 NW5       30.06S
RANTOUL        SUNNY     73  62  69 W7        30.08S
ROBINSON       SUNNY     74  63  68 W6        30.11S
SPRINGFIELD    SUNNY     75  62  64 VRB6      30.10S
TAYLORVILLE    SUNNY     72  61  68 W5        30.10S
$$

...REGIONAL REPORTS...


CITY           SKY/WX    TMP DP  RH WIND       PRES   REMARKS
CHICAGO O`HARE MOSUNNY   72  54  53 VRB5      30.04R
KANKAKEE       SUNNY     72  60  66 W6        30.06S
MOLINE         MOSUNNY   71  58  63 CALM      30.08S
MOUNT VERNON   SUNNY     73  61  64 CALM      30.12R
PITTSFIELD     PTSUNNY   75  60  59 W5        30.12S
QUINCY         SUNNY     73  58  59 W5        30.11R
ROCKFORD       SUNNY     71  57  61 N6        30.07S
$$


CITY           SKY/WX    TMP DP  RH WIND       PRES   REMARKS
BURLINGTON     SUNNY     72  61  68 NW5       30.09S
CEDAR RAPIDS   SUNNY     68  59  73 NW7       30.09S
DES MOINES     MOSUNNY   74  58  57 N6        30.12S
KIRKSVILLE     SUNNY     75  59  57 N5        30.12F
OTTUMWA        SUNNY     71  60  68 NW7       30.10F
ST LOUIS       PTSUNNY   79  56  45 CALM      30.11S HX  80
$$


CITY           SKY/WX    TMP DP  RH WIND       PRES   REMARKS
TERRE HAUTE    SUNNY     72  60  66 W5        30.08S
EVANSVILLE     SUNNY     75  59  57 W6        30.11S
INDIANAPOLIS   MOSUNNY   70  60  70 W8        30.07S
LAFAYETTE      CLOUDY    67  62  84 W5        30.06S
MADISON        MOSUNNY   68  58  70 N6        30.06S
MILWAUKEE      PTSUNNY   65  58  78 VRB5      30.04S
$$





USA.gov is the U.S. government's official web portal to all federal, state and local government web resources and services.